Wind_Speed
11 11 10 10 10 11 11 11 11 11 11 11 12 12 12 12 12 11 10 10 10 10 9 7 6 5 4 4 4 3 2 2 1 1 1 2 2 3 4 4 5 7 7 7 9 10 11 13 13 14 15 16 16 16 16 17 18 18 19 21 23 24 23 23 25 26 27 28 29 29 30 31 31 32 32 33 33 33 34 36 37 37 38 39 40 41 41 42
11 11 11 10 10 11 10 10 9 9 9 9 10 10 10 10 10 10 10 9 9 8 7 6 5 4 3 3 3 4 4 4 3 3 4 4 5 6 7 7 8 9 10 10 11 13 14 15 16 17 18 19 20 19 20 21 21 21 22 24 25 25 24 25 26 27 28 30 31 31 31 32 33 33 34 34 35 35 35 36 37 39 40 41 42 43 44 44
11 11 11 11 11 10 9 9 8 8 8 8 8 8 8 8 8 8 8 8 7 6 5 4 4 4 5 4 4 4 5 6 6 7 7 7 8 8 9 10 11 12 12 13 14 15 17 18 19 20 21 22 23 23 23 24 23 24 25 26 26 26 27 27 28 29 30 31 32 33 34 34 35 35 36 36 36 37 37 37 39 40 41 43 44 45 46 46
11 11 11 11 11 11 10 9 8 7 7 6 6 6 7 7 6 6 6 6 5 5 4 4 4 5 5 5 5 5 6 7 7 8 9 9 9 9 10 11 12 13 14 15 16 17 18 19 21 22 23 23 24 25 26 25 25 26 27 28 27 28 29 29 30 30 31 32 33 35 36 36 37 37 37 38 38 38 39 39 40 41 42 43 44 45 46 47
10 10 11 11 10 10 10 9 8 7 6 6 5 5 5 5 5 5 5 5 5 4 4 4 4 5 5 5 5 5 6 8 9 9 10 10 10 11 11 12 13 14 14 16 17 18 19 20 21 22 23 24 24 25 26 26 26 28 29 28 29 29 30 31 31 32 32 33 35 36 37 38 38 38 39 39 39 40 40 41 42 42 43 44 45 46 47 47
8 10 10 10 10 9 9 8 6 6 5 5 5 5 5 5 5 5 4 4 4 4 4 4 4 5 5 5 5 5 6 8 9 9 10 10 11 12 13 13 14 15 16 17 18 19 20 21 22 23 23 23 24 25 26 27 27 29 29 29 29 30 31 32 32 33 33 34 36 37 38 39 39 39 39 40 41 41 42 42 43 44 44 45 46 46 47 48
8 10 10 10 10 10 8 7 5 4 4 4 4 5 5 5 5 5 4 4 4 3 3 3 4 4 4 5 5 6 7 8 8 9 10 11 12 13 14 14 15 16 17 18 19 20 21 22 22 23 23 23 24 26 27 27 28 28 29 29 30 30 31 32 33 33 34 35 36 37 38 38 39 40 40 41 41 42 43 44 44 45 45 46 46 47 47 48
8 10 10 10 11 10 9 6 5 4 3 4 4 4 5 5 5 4 3 3 2 2 1 2 3 4 4 5 6 6 7 8 9 10 11 12 13 14 15 16 17 18 18 19 20 21 22 22 22 23 24 24 25 26 26 27 27 27 28 29 30 30 31 32 32 33 34 35 36 37 38 39 40 40 41 42 42 43 44 44 45 45 45 46 47 47 48 49
9 11 11 11 12 11 8 5 4 4 4 3 3 3 4 4 4 4 3 2 2 2 2 3 4 5 5 6 7 8 9 11 11 12 13 14 15 16 17 17 19 19 19 19 20 21 21 21 22 23 23 24 25 25 25 26 27 27 28 29 30 31 31 31 32 33 33 34 35 36 38 39 40 41 41 42 43 44 44 44 44 45 45 46 47 48 49 49
10 11 12 12 12 11 7 5 3 4 4 3 2 2 3 3 4 3 2 3 3 3 4 5 6 7 8 8 9 10 11 13 13 14 15 16 16 17 17 18 18 18 18 18 18 18 18 19 19 20 21 22 23 24 24 25 26 27 28 29 30 31 31 31 32 33 33 34 35 36 37 39 39 40 42 42 43 44 44 44 45 45 46 47 48 49 49 50
11 12 13 13 12 10 6 4 4 4 4 3 3 3 4 5 5 4 4 5 4 5 6 6 7 9 10 10 11 12 13 15 15 15 16 16 15 15 15 15 15 15 15 15 15 15 16 17 18 19 20 22 23 24 24 24 25 26 26 27 29 30 30 31 32 33 33 34 35 36 37 38 39 41 42 42 43 44 44 45 46 47 48 48 49 50 50 51
12 13 14 14 12 8 5 5 5 5 5 4 4 5 6 7 7 7 8 8 8 8 9 9 9 10 11 12 12 13 13 14 13 13 13 13 12 12 12 12 13 13 13 14 14 15 16 17 19 20 21 22 23 24 24 24 25 25 26 27 28 29 29 30 32 32 33 34 36 37 38 39 40 41 41 42 43 44 45 46 47 48 49 50 50 51 51 51
13 14 15 13 10 6 5 5 6 6 5 4 5 6 7 8 8 9 10 10 11 11 11 12 12 11 11 11 10 10 10 9 9 9 9 10 11 11 12 12 13 14 14 15 16 17 19 20 21 22 23 24 24 25 25 25 26 27 27 28 29 29 29 30 31 32 33 34 35 36 38 39 40 41 41 42 43 44 45 46 47 48 48 49 49 49 49 49
14 15 14 12 8 5 4 5 6 6 5 5 6 7 8 9 10 11 11 12 12 13 13 12 11 10 9 7 7 7 7 7 7 7 8 9 10 11 12 13 14 15 16 17 18 19 20 22 23 24 25 25 25 25 26 27 28 29 29 30 30 30 31 31 32 33 33 35 35 36 38 39 40 41 41 42 43 44 45 45 46 46 46 47 47 47 48 48
15 14 12 9 6 5 5 6 5 5 5 6 7 8 9 10 11 12 12 12 12 11 10 9 8 8 6 6 6 6 7 7 8 8 9 9 11 12 13 14 15 16 17 18 19 20 20 22 23 24 25 25 25 26 26 27 28 29 30 30 31 32 32 33 33 34 35 36 36 37 39 40 40 41 41 42 43 44 45 45 45 46 46 46 46 47 47 48
15 13 9 6 5 6 6 5 5 5 6 7 8 10 11 11 12 12 11 10 8 8 7 7 7 6 6 6 7 7 8 9 9 10 11 12 13 14 14 15 15 16 16 17 18 18 19 21 22 23 24 25 26 26 27 28 29 29 30 31 31 32 33 34 34 35 35 36 37 38 39 39 40 40 41 42 43 43 44 45 45 45 46 46 47 47 47 48
13 10 6 5 6 6 5 5 5 6 7 8 10 11 11 11 10 9 7 6 6 6 6 6 5 5 6 6 7 7 8 10 11 12 13 13 13 13 13 13 14 15 16 17 18 19 20 21 22 23 25 26 27 27 28 29 29 29 30 31 32 33 33 34 35 35 35 36 36 37 38 39 40 40 41 41 42 43 44 45 45 46 46 46 46 46 46 46
10 7 5 5 5 5 5 6 6 7 8 10 10 10 9 8 7 6 6 5 5 5 5 5 4 5 6 7 7 8 9 11 11 12 12 12 12 12 13 14 15 16 18 19 20 21 22 23 24 25 26 27 28 29 29 30 30 31 32 33 34 34 35 35 36 36 36 37 37 39 40 40 41 41 42 42 43 44 44 44 45 45 44 44 44 43 42 42
6 5 5 5 5 5 6 7 8 9 9 9 9 8 7 6 6 6 5 5 5 5 5 5 5 5 7 8 8 9 10 10 10 10 10 11 13 14 16 17 18 19 20 21 22 22 23 24 24 25 25 27 28 29 30 30 31 32 33 33 34 35 36 36 37 37 37 38 39 40 40 40 41 41 42 42 43 43 44 43 43 43 42 41 40 40 40 40
6 5 5 4 5 6 7 8 9 10 8 7 7 6 6 6 6 5 5 5 5 6 6 6 6 7 9 9 8 9 9 9 10 11 12 14 16 17 18 19 20 21 21 22 22 22 23 23 24 24 24 25 26 27 28 29 30 30 31 32 33 34 34 35 35 36 37 38 39 39 39 39 39 40 40 41 41 41 41 40 40 39 38 38 37 37 38 38
5 5 5 4 5 6 8 9 9 8 6 6 5 5 5 6 6 6 6 6 6 7 7 6 6 8 8 8 8 9 10 11 12 14 15 17 18 19 20 20 21 21 21 22 22 22 23 23 23 23 24 24 25 26 26 27 28 29 30 31 32 32 33 34 35 36 36 36 37 37 37 37 37 37 38 38 38 37 36 35 35 34 34 34 35 36 37 38
5 5 5 5 6 8 9 8 6 5 5 5 5 5 6 6 6 6 6 7 7 7 7 6 6 6 7 8 10 11 13 14 15 16 17 18 19 19 20 20 21 21 21 22 22 22 22 22 22 23 23 24 25 25 26 27 28 29 30 31 32 33 33 34 35 35 35 35 35 35 35 35 34 34 34 34 33 32 31 32 32 32 33 34 34 35 35 35
5 5 6 7 8 7 6 4 4 4 4 4 5 6 7 7 7 7 6 7 7 7 6 7 7 7 9 11 13 14 15 16 17 18 18 19 20 20 21 21 21 21 21 22 22 22 22 22 23 24 24 25 26 27 28 29 30 30 31 32 32 33 33 33 33 33 32 32 32 32 31 30 30 30 30 30 30 30 30 31 31 32 32 31 31 31 31 31
5 6 7 8 6 4 2 3 3 3 4 5 6 7 8 8 7 7 6 6 7 7 7 8 9 10 12 14 16 17 18 18 19 19 20 21 21 21 21 21 21 21 21 22 22 23 23 24 25 26 27 28 29 30 31 31 32 32 32 32 31 31 30 30 29 29 28 28 27 27 26 26 26 27 28 29 29 30 30 29 29 28 28 27 28 29 30 31
6 6 6 5 2 2 2 3 3 4 5 6 7 7 7 7 7 7 7 7 8 8 9 11 12 13 15 17 17 18 19 19 20 20 21 21 21 21 21 21 21 22 22 23 24 25 25 26 27 29 30 31 32 32 32 33 32 32 30 29 28 27 26 25 25 24 24 23 23 23 24 23 25 27 28 27 27 27 26 25 25 25 26 27 28 29 30 31
5 4 2 1 2 3 3 3 4 5 5 5 6 6 7 8 8 8 8 8 10 10 11 14 14 14 17 17 18 19 20 20 21 21 21 20 20 20 21 21 22 23 24 24 25 26 27 28 30 31 32 32 32 31 31 30 29 27 26 25 24 23 22 22 22 22 22 22 22 22 23 22 22 25 24 23 23 23 23 24 25 25 26 27 28 29 30 31
2 1 2 3 3 3 2 4 4 4 5 5 6 7 8 8 8 8 9 10 11 11 12 15 15 16 17 18 19 20 20 20 20 20 19 19 19 20 21 22 22 23 24 25 26 27 29 30 31 31 31 30 29 28 26 25 24 22 21 21 20 20 20 20 21 22 21 21 21 21 21 20 19 21 21 20 22 23 24 25 25 26 26 27 28 29 31 32
2 3 3 3 3 2 3 3 3 4 5 6 6 7 7 8 8 9 9 11 12 12 13 15 15 17 18 18 19 20 20 20 19 19 19 19 20 21 21 22 23 25 26 27 28 29 29 30 29 28 27 26 25 24 22 21 21 20 20 19 19 19 20 20 20 20 20 20 19 19 20 18 17 20 22 21 23 23 24 25 25 26 26 27 29 30 32 33
3 3 3 2 2 2 2 2 4 5 6 6 6 6 7 7 8 9 9 11 13 13 13 15 15 17 18 18 19 19 19 19 18 19 19 19 20 21 22 23 25 26 26 27 28 28 28 27 27 26 25 24 23 22 21 20 19 19 19 19 19 20 20 20 19 19 19 19 19 19 21 22 20 21 24 23 23 23 23 25 25 26 27 29 31 32 34 35
3 2 2 2 2 2 3 5 6 6 6 6 6 6 7 7 9 10 10 11 13 13 14 15 16 17 18 18 18 18 18 18 18 19 19 20 20 22 23 24 25 25 26 26 27 27 26 26 25 24 23 22 21 20 19 19 19 19 19 19 19 19 19 19 19 19 20 20 21 22 24 27 24 23 24 24 24 24 24 24 26 27 29 31 33 35 37 39
2 2 2 3 3 4 5 6 6 6 6 6 6 6 7 8 9 10 11 12 13 14 15 17 18 19 19 19 19 18 17 17 17 18 19 20 21 22 23 24 24 25 25 26 26 26 25 25 24 23 22 21 20 19 18 18 18 18 18 18 18 19 19 20 20 20 22 23 25 26 27 29 27 25 26 26 25 25 24 25 27 29 31 33 35 38 40 43
2 3 4 4 5 6 6 6 6 6 6 6 7 7 8 9 9 10 12 13 13 15 16 18 19 20 20 20 19 18 17 17 18 18 19 20 21 22 23 24 25 25 26 26 25 25 25 24 24 23 22 21 19 19 18 18 18 18 18 19 19 20 20 21 21 22 23 24 26 27 28 29 28 26 27 28 27 27 27 28 30 32 34 36 39 41 43 45
3 4 5 6 7 7 6 6 6 6 6 6 7 8 8 9 10 11 12 13 14 16 18 19 20 20 20 20 19 18 18 18 18 19 20 21 22 22 23 24 24 25 25 25 25 25 24 24 24 23 22 21 20 19 19 18 19 19 19 19 19 19 20 20 21 22 21 22 23 26 28 28 28 27 28 29 30 31 31 31 33 35 38 39 41 43 45 46
5 6 6 7 7 6 6 6 6 6 6 6 7 8 9 10 12 12 13 15 16 17 19 20 21 20 20 19 18 17 17 17 18 19 20 21 22 23 23 24 24 24 24 24 24 24 24 23 24 23 22 22 21 20 20 19 19 18 18 18 17 18 20 21 22 23 22 21 21 24 27 28 29 30 30 31 32 33 33 32 34 37 39 40 41 43 45 47
7 7 7 7 6 6 6 6 6 6 7 7 7 9 11 11 12 13 14 15 17 18 20 20 20 20 20 19 18 18 18 18 18 19 20 21 22 23 23 23 24 24 24 24 24 24 24 24 24 23 23 23 22 21 21 20 20 19 19 19 18 19 21 23 24 25 27 26 23 24 27 28 30 32 33 33 33 34 34 33 35 38 39 41 42 45 47 49
7 8 7 6 6 6 6 6 6 6 6 7 8 10 12 12 13 14 14 16 17 19 20 20 20 20 19 19 18 18 18 18 19 20 21 22 22 23 23 24 24 24 24 24 25 24 25 24 24 24 24 24 24 23 22 22 22 22 22 22 22 22 24 26 27 27 30 32 30 28 29 29 31 34 36 35 35 34 35 35 37 40 43 44 46 49 51 53
8 7 6 6 6 6 6 6 7 6 6 8 9 11 12 13 13 14 15 16 18 19 20 20 19 19 19 18 18 18 18 19 20 21 21 22 23 23 24 24 25 25 25 25 25 25 25 25 25 25 24 25 25 24 24 24 24 25 24 24 25 25 26 28 30 31 32 35 34 32 31 30 31 36 39 37 35 36 38 39 40 43 46 49 50 53 55 56
7 6 5 5 5 6 6 6 6 6 7 9 10 11 13 13 13 14 15 17 18 19 20 20 19 19 19 18 18 18 19 19 20 21 22 22 23 24 24 25 25 25 25 25 25 25 25 25 25 25 25 26 26 25 26 26 26 27 27 27 28 29 29 30 32 35 36 38 39 36 34 31 30 36 40 37 36 39 42 44 44 46 50 52 54 56 57 59
6 6 5 5 5 6 5 5 6 8 9 9 11 12 13 13 13 14 16 17 18 19 20 20 20 20 19 19 19 19 19 20 21 21 22 23 23 24 25 25 25 25 25 25 25 25 26 25 25 25 25 26 26 26 27 27 27 28 29 30 31 31 33 33 34 37 38 41 42 41 40 34 28 33 40 41 42 43 46 49 49 50 53 55 58 59 60 61
6 6 5 5 5 5 4 4 7 8 8 10 12 12 12 12 13 14 16 17 18 19 20 20 20 20 20 20 20 20 20 21 21 22 22 23 24 25 25 25 25 25 25 25 25 26 26 25 26 26 26 27 27 27 28 28 28 29 29 31 32 33 35 36 36 38 39 43 44 45 46 34 22 27 39 45 50 50 51 54 54 54 56 58 60 61 62 63
6 5 5 4 3 4 5 7 7 8 9 12 12 11 11 12 13 14 16 17 18 19 19 20 20 20 20 20 21 21 21 22 22 23 23 24 25 25 25 25 25 25 25 25 25 26 26 26 26 27 27 27 27 28 29 29 30 31 30 31 32 34 37 38 39 39 41 44 45 48 51 35 22 28 39 46 53 54 55 59 58 58 59 61 63 64 64 65
5 5 4 3 3 5 7 6 6 9 11 12 11 11 12 12 13 15 16 17 18 19 19 19 20 20 21 21 21 22 22 23 23 24 25 25 25 26 26 26 26 26 25 25 26 26 26 26 26 26 28 28 28 28 29 30 31 32 32 33 33 35 37 39 42 43 44 46 45 51 56 40 29 35 42 48 54 55 57 61 61 61 62 62 64 65 65 65
4 4 4 4 5 6 5 5 8 11 12 11 11 11 12 12 14 15 16 17 18 18 19 19 20 20 21 22 22 23 23 24 24 25 26 26 27 27 27 27 27 27 26 26 26 27 27 27 26 26 27 28 29 29 30 31 32 33 34 35 36 37 39 41 44 45 48 48 46 53 59 45 36 41 47 51 55 56 59 62 62 63 64 64 65 65 65 65
3 4 4 5 6 5 5 7 10 11 11 11 11 11 12 13 14 15 16 17 18 18 19 19 20 21 22 22 23 24 24 25 25 26 26 27 28 28 28 28 28 27 28 27 27 27 28 28 28 28 27 27 27 29 30 31 32 33 35 36 38 39 41 44 45 47 50 50 46 53 60 51 43 45 49 53 57 58 60 62 63 64 64 64 65 65 65 65
3 4 4 5 5 4 7 9 10 10 11 11 11 12 13 13 14 15 17 17 18 18 19 19 20 21 22 23 24 25 25 26 26 26 27 27 28 28 28 28 28 28 28 28 27 28 28 28 29 30 29 28 28 29 30 31 32 33 34 36 39 41 43 45 47 49 51 52 51 55 59 56 51 49 51 53 57 59 61 62 62 63 63 63 64 64 64 65
4 5 5 5 5 6 8 9 9 10 10 10 11 12 13 14 15 16 17 17 18 18 19 20 20 21 23 24 25 26 26 27 27 27 27 28 28 28 28 28 29 29 29 29 28 28 27 27 29 30 30 30 31 31 33 33 32 33 34 36 38 41 43 45 48 50 50 53 58 56 56 60 58 53 52 53 55 59 60 59 60 60 61 62 63 63 64 64
4 5 5 5 5 7 8 8 9 10 10 11 12 13 13 14 15 17 18 18 19 19 20 20 21 22 24 25 26 27 28 28 29 29 28 28 28 29 29 30 30 30 30 30 29 29 27 26 28 28 28 30 31 32 34 35 34 34 35 36 37 40 43 46 48 49 48 55 61 56 55 62 61 53 51 52 54 58 58 57 58 59 60 61 62 63 63 63
5 6 5 5 6 7 8 8 9 10 11 12 12 13 14 15 16 18 19 19 20 20 21 21 22 23 25 27 28 29 29 29 30 30 30 29 29 30 31 31 31 31 31 31 30 30 29 27 27 27 26 28 31 32 34 35 35 34 35 37 39 40 43 46 48 49 51 57 60 57 56 61 57 51 50 52 54 56 56 56 57 58 59 61 62 63 63 63
6 6 5 5 6 7 7 8 9 10 11 12 13 14 15 16 17 18 19 20 21 22 22 23 24 25 26 28 29 30 31 31 31 31 31 31 31 31 32 33 33 33 33 33 32 33 32 30 29 29 26 25 28 32 34 35 36 35 35 37 39 41 44 48 49 50 53 56 56 55 56 55 51 49 52 52 53 55 56 56 56 57 59 60 62 63 63 63
5 6 6 5 6 7 7 8 10 11 12 13 14 15 16 18 18 19 20 21 21 22 24 24 25 26 27 29 30 31 31 32 32 33 32 32 32 33 34 34 35 35 35 35 35 35 36 35 33 34 29 25 27 31 33 35 36 35 35 36 39 43 46 48 48 47 49 52 51 52 54 51 47 48 52 52 52 54 56 55 55 57 58 60 61 62 62 63
5 6 6 6 6 7 8 9 10 11 12 14 15 16 17 18 19 19 20 22 22 23 24 25 26 27 28 29 30 31 32 33 33 34 34 34 33 34 35 35 36 36 36 37 37 37 38 38 37 38 35 30 30 33 35 36 37 36 37 39 42 45 47 46 45 44 45 47 48 49 50 49 48 48 51 52 53 55 56 55 55 56 58 60 61 61 62 63
5 5 6 6 7 7 8 9 10 11 13 14 15 17 18 19 20 20 20 21 23 23 25 26 27 28 29 30 31 32 33 33 34 35 35 35 35 35 36 36 37 37 38 39 39 39 40 40 40 41 40 36 35 38 39 39 39 38 39 42 45 46 47 46 43 41 42 45 47 48 50 49 49 50 52 53 54 56 56 54 54 56 58 60 60 61 62 63
Wind_Direction
34 32 31 29 31 36 37 36 36 35 36 41 44 42 39 40 46 53 63 69 73 76 74 66 57 48 44 36 34 36 40 60 97 193 208 229 246 256 259 260 264 267 269 271 273 277 277 277 276 276 275 273 271 268 266 266 265 265 266 266 266 269 272 273 274 275 275 275 274 274 273 272 272 272 271 271 271 270 270 270 272 272 273 273 273 274 273 273
35 33 32 31 33 38 41 40 39 38 37 36 38 37 37 36 37 38 38 40 45 51 54 45 27 8 2 3 356 344 335 326 309 292 279 273 273 273 274 273 272 272 274 273 272 272 271 271 271 271 271 271 270 268 266 264 264 264 264 265 266 270 271 271 272 273 274 275 275 275 273 272 271 270 270 269 269 268 267 268 269 270 270 271 272 272 272 272
35 32 31 29 31 35 38 40 40 42 41 38 35 32 31 31 30 28 28 30 30 29 30 21 358 336 329 335 333 323 316 306 298 292 286 280 278 275 274 274 273 273 273 272 271 269 268 268 268 268 268 268 268 268 268 268 268 268 267 267 268 271 271 271 271 272 272 273 274 274 274 273 272 272 271 271 271 270 270 269 269 269 270 270 270 271 271 271
32 28 26 22 24 28 30 32 36 41 42 39 33 27 24 22 18 13 12 14 12 5 357 346 328 316 314 319 315 306 300 292 287 286 284 281 280 278 275 273 271 271 269 269 268 268 268 268 268 268 267 268 269 270 271 272 272 271 270 270 270 270 271 272 272 273 273 273 273 274 274 274 274 274 274 274 274 274 274 273 272 271 271 271 271 271 272 272
27 23 19 16 16 18 20 23 28 33 35 33 24 19 14 8 1 353 351 351 346 335 329 323 310 303 305 307 303 297 287 280 281 283 283 283 284 282 281 280 279 277 275 273 272 271 271 271 271 271 271 271 272 273 273 273 273 272 271 272 272 272 272 273 273 273 274 274 274 275 275 276 276 277 277 277 276 276 276 275 275 274 273 273 273 274 274 275
17 14 11 9 7 6 10 17 26 30 28 22 12 4 357 351 338 328 330 326 318 315 316 311 301 300 302 303 299 294 283 276 278 280 280 283 284 284 283 283 282 282 281 279 278 278 277 276 276 276 276 275 275 275 276 276 275 275 275 274 274 273 273 273 274 274 275 275 275 276 277 278 279 279 279 279 278 277 277 277 277 277 277 277 277 277 278 278
2 4 1 360 357 356 1 10 22 26 22 12 2 356 353 346 332 324 325 316 308 310 316 308 297 300 300 297 296 291 283 280 280 281 283 284 283 283 283 283 282 281 281 281 281 282 280 280 279 279 279 277 277 278 279 278 277 276 276 276 275 275 274 274 275 275 275 275 276 277 278 279 280 280 279 279 279 278 278 278 278 279 279 279 280 280 280 280
348 353 353 350 348 348 353 359 7 8 5 3 0 3 7 6 359 356 349 331 331 327 311 291 291 298 296 294 295 290 288 288 288 289 289 288 287 285 285 284 283 282 281 281 282 281 279 280 279 279 279 278 278 278 278 278 278 278 277 277 276 276 275 275 275 275 275 276 277 278 279 279 279 279 279 279 279 279 279 279 279 280 280 280 280 280 280 280
338 344 344 340 339 340 344 346 351 351 347 351 7 18 17 21 26 27 13 356 358 339 304 291 293 298 299 300 298 294 293 292 291 291 290 289 288 288 288 287 287 287 286 285 283 282 282 281 280 279 278 277 276 276 276 276 276 277 276 276 276 277 277 277 277 277 277 277 277 278 278 278 277 278 278 278 278 279 280 280 280 280 280 279 279 279 279 279
332 335 334 332 332 333 334 334 337 333 330 338 355 10 4 4 14 17 356 339 330 311 302 299 299 302 301 300 296 293 292 291 290 289 288 288 289 290 290 291 291 292 291 289 288 287 287 284 282 280 277 277 277 276 275 275 276 277 277 278 279 280 280 281 280 279 279 279 278 278 277 277 277 277 278 278 279 280 280 280 280 280 279 279 279 279 279 279
323 325 325 325 326 326 323 321 323 319 322 331 333 343 346 342 344 341 326 321 314 304 303 300 297 296 294 292 290 289 288 288 288 288 288 290 291 292 293 293 294 294 294 294 293 292 289 286 284 282 281 282 283 284 284 284 285 285 285 284 283 282 282 281 280 280 280 280 279 278 278 278 278 278 279 279 279 279 279 279 279 279 279 279 280 280 280 280
315 318 319 320 320 319 315 311 312 316 322 328 330 335 335 332 330 327 322 319 314 307 304 299 293 289 287 286 285 285 284 285 287 288 289 290 291 291 292 292 292 292 293 294 292 290 288 287 287 286 287 288 289 290 291 290 289 288 287 285 284 284 283 283 283 282 281 280 280 280 280 279 279 280 280 280 279 279 279 279 279 279 280 280 281 281 282 282
310 314 315 316 315 312 305 305 311 317 323 328 330 329 326 324 322 318 315 313 310 307 303 298 295 292 289 288 287 284 282 283 285 285 285 286 287 288 288 288 289 289 290 290 290 289 289 289 290 289 289 289 289 289 289 288 288 287 286 285 286 286 285 285 284 283 282 282 282 282 281 281 281 282 281 281 281 280 280 280 280 281 281 282 282 283 284 284
308 310 311 311 310 305 300 304 310 314 321 325 323 320 317 316 314 312 310 307 305 303 301 300 300 299 299 300 296 291 290 290 287 283 282 283 285 285 285 285 285 287 287 288 290 290 290 289 289 287 287 287 287 287 287 287 286 286 286 286 287 286 285 284 283 282 282 282 282 282 282 282 282 282 283 283 283 282 282 282 283 283 284 284 285 285 286 287
305 305 307 308 303 298 301 305 309 311 314 316 314 313 311 310 309 307 305 304 304 304 305 307 307 308 314 310 301 302 298 291 287 288 285 283 284 285 286 286 288 289 289 290 291 291 290 289 288 287 287 287 288 288 287 286 286 286 287 287 286 285 284 283 283 283 282 282 282 282 282 282 283 283 283 283 283 283 283 284 284 285 286 287 287 288 288 289
301 302 305 302 296 296 303 306 306 307 308 310 309 308 306 305 305 304 305 307 309 312 313 315 312 313 319 310 303 300 291 286 289 291 287 285 288 291 293 294 296 296 295 295 295 294 293 292 290 289 289 289 290 289 288 288 288 288 287 286 285 285 284 284 284 284 283 283 283 283 283 283 282 282 282 282 282 283 283 284 285 286 287 288 288 289 289 290
298 300 297 290 292 297 302 304 304 305 307 307 305 304 304 304 306 309 313 317 321 320 318 317 313 310 311 304 296 289 287 289 291 289 289 293 297 301 303 303 303 301 299 298 298 297 296 294 292 292 292 291 291 290 289 289 288 288 287 286 286 286 286 285 285 285 285 285 284 283 282 281 282 282 282 282 283 283 284 285 286 287 288 288 289 290 290 291
293 287 280 281 287 293 298 301 304 306 307 305 304 305 308 312 316 321 325 328 330 327 324 320 308 302 305 299 289 285 290 294 294 295 297 302 306 308 308 307 304 302 301 299 298 296 295 293 292 291 290 289 289 289 288 288 288 287 286 286 286 286 286 285 286 286 285 284 282 281 281 282 283 284 284 285 285 286 287 287 288 289 289 290 291 292 292 292
275 267 270 275 282 290 297 300 304 306 306 306 308 314 320 325 330 335 340 339 336 333 328 321 309 304 307 302 295 296 303 306 306 307 308 310 311 309 308 307 306 305 303 300 297 296 294 292 291 290 289 288 288 288 288 288 288 287 287 286 286 285 285 285 285 284 283 282 282 282 283 284 285 286 286 287 287 288 288 289 290 291 292 293 293 294 294 294
255 260 268 278 287 293 297 301 305 306 308 312 317 325 332 339 346 349 345 339 336 334 327 318 310 312 315 312 311 313 316 317 315 316 315 313 310 308 310 310 308 306 304 302 301 300 298 297 296 295 293 292 291 290 290 289 289 288 288 287 286 285 285 285 284 284 283 284 284 285 285 285 286 286 287 287 287 288 289 290 291 292 293 294 294 293 293 293
250 265 278 288 294 296 301 304 306 310 317 323 332 343 347 352 355 348 342 340 336 331 326 317 313 320 325 325 325 325 325 323 321 319 313 309 308 310 313 312 310 310 309 309 307 306 305 304 304 302 300 298 296 294 293 293 292 291 290 288 288 287 287 286 286 285 285 286 286 286 286 287 287 288 288 288 289 290 291 293 293 294 295 294 293 293 292 293
254 275 290 296 299 301 304 308 314 324 334 341 351 355 350 352 353 345 342 341 339 338 341 343 339 337 340 337 331 325 325 323 319 314 309 309 313 315 316 315 315 315 314 313 312 311 310 308 307 305 302 301 299 297 296 294 293 292 291 290 289 288 287 287 286 287 287 287 288 288 289 290 291 291 291 291 292 294 295 295 295 295 294 293 293 293 294 295
259 279 291 297 302 304 309 323 336 346 351 351 352 348 344 348 348 347 348 352 358 2 6 3 352 344 339 336 331 324 322 320 315 314 316 318 319 319 320 320 319 318 318 317 316 314 312 311 309 307 304 302 300 299 297 295 294 292 290 289 288 287 287 288 288 289 290 290 290 291 292 293 294 294 293 294 296 297 296 295 295 294 293 294 295 296 298 299
264 281 292 299 305 313 341 10 6 359 351 347 346 342 344 349 354 2 11 19 21 18 12 357 346 342 336 332 328 325 322 321 320 322 323 322 323 323 323 321 321 321 321 320 317 316 314 313 310 308 306 305 303 301 299 297 295 293 292 291 291 291 291 292 293 293 293 293 294 295 296 296 297 296 295 296 298 296 295 295 294 295 297 299 300 301 302 302
274 286 295 301 323 16 29 21 8 356 346 344 346 349 358 8 20 29 32 29 16 8 4 351 343 340 333 329 328 326 324 324 324 325 324 324 325 325 323 323 324 324 322 320 319 317 315 313 311 309 308 305 303 301 299 298 297 296 297 297 298 298 299 299 299 298 298 298 299 299 299 299 298 296 295 297 297 296 296 297 298 300 302 303 303 304 304 305
282 288 298 71 65 50 31 6 352 350 349 355 6 16 28 36 39 33 25 17 3 354 351 345 339 335 331 329 328 326 325 326 325 324 325 326 325 324 325 327 326 324 323 321 319 317 315 313 311 309 307 305 303 302 301 301 301 302 304 305 305 305 305 304 303 302 302 302 303 303 302 300 297 296 298 299 298 298 300 302 302 303 305 306 306 307 307 308
271 150 111 93 69 49 11 352 349 356 11 31 42 45 43 39 33 21 12 6 356 345 342 341 336 334 332 330 329 327 326 325 324 324 325 325 325 327 329 328 326 325 323 321 319 318 316 315 313 311 309 308 308 307 307 308 310 311 312 310 309 309 308 308 306 306 307 308 310 307 303 302 301 300 302 302 301 302 304 305 305 306 308 309 309 309 309 310
135 119 103 81 61 30 356 357 13 38 56 62 58 50 38 28 18 9 2 358 351 343 340 340 336 335 334 331 329 328 325 323 323 325 326 328 330 331 330 328 327 327 325 323 322 321 320 318 317 316 316 315 315 315 317 319 319 319 316 314 315 315 313 311 310 310 313 314 314 309 304 304 304 301 302 303 303 305 306 306 307 309 310 311 310 310 310 310
129 115 89 69 47 20 21 47 67 75 75 67 56 43 28 18 9 2 357 352 349 344 341 340 339 338 335 333 330 327 325 325 327 329 332 333 333 331 330 331 330 328 327 326 325 325 325 324 324 324 323 323 323 324 326 324 323 321 319 320 321 318 315 314 315 317 318 316 314 312 307 306 307 305 305 307 308 308 309 308 309 310 311 311 310 309 310 310
130 100 70 56 52 66 80 85 85 81 71 57 45 31 16 8 3 359 355 350 347 345 343 342 342 339 336 334 331 329 329 331 332 334 335 334 333 332 333 333 330 329 329 328 329 330 331 331 331 330 328 329 329 329 327 325 324 323 323 323 322 319 317 319 321 321 320 318 317 315 310 308 311 310 308 309 310 311 311 310 309 310 310 310 310 310 311 311
119 76 66 72 84 90 90 88 82 72 59 46 32 20 11 5 360 356 353 348 346 346 344 343 342 339 337 336 333 334 334 333 334 335 335 334 334 335 334 332 331 331 332 333 335 335 336 337 336 333 333 333 332 329 327 325 325 325 325 324 323 322 323 324 324 322 321 320 317 315 310 308 311 312 310 310 311 312 312 310 309 309 309 309 310 311 311 310
89 80 88 96 98 94 88 79 68 57 49 38 26 16 8 4 358 353 352 348 347 347 344 342 341 340 339 338 337 337 335 335 337 337 336 335 335 336 334 334 334 336 337 338 338 339 340 340 338 337 337 335 333 330 328 328 328 328 327 327 327 326 326 324 321 318 317 315 312 310 308 307 309 311 310 310 311 312 313 311 309 309 309 310 311 311 311 310
98 99 102 102 99 91 81 68 56 48 40 32 24 13 4 0 357 352 350 348 347 346 343 341 341 341 340 340 339 338 337 339 339 338 338 336 337 336 335 336 337 338 339 339 339 341 341 340 339 339 339 337 334 332 331 331 330 330 328 326 326 323 320 316 311 309 306 305 305 304 305 307 309 310 310 311 311 312 312 311 310 310 310 312 312 312 311 311
111 109 106 102 96 86 72 60 51 41 31 26 20 11 3 357 354 351 348 347 346 343 342 342 342 342 342 342 341 340 340 340 338 339 338 337 338 336 337 338 338 338 339 339 341 341 341 341 341 340 339 338 337 334 334 332 330 329 324 322 320 313 311 310 307 307 304 303 302 300 304 310 310 310 311 310 310 310 310 311 311 311 312 312 312 311 311 310
115 112 108 102 92 76 63 55 44 34 29 23 14 8 3 355 351 350 347 346 345 344 344 344 344 345 344 343 343 342 342 341 339 339 338 338 338 337 338 339 339 339 340 340 342 341 341 342 341 340 339 339 338 335 333 331 329 327 323 321 317 313 313 312 311 312 309 308 307 303 306 310 310 309 309 308 309 308 308 310 311 311 311 311 310 309 309 309
115 112 106 95 80 66 59 51 38 29 22 16 10 5 359 352 350 349 346 346 346 346 347 348 347 347 346 346 345 344 343 341 340 339 339 339 339 339 340 340 340 341 340 341 342 342 342 342 341 340 338 338 337 334 332 330 328 326 324 322 319 318 317 313 313 313 310 310 311 310 311 312 311 309 306 307 308 307 307 310 311 311 310 309 309 309 309 309
110 108 99 80 66 58 53 45 33 20 11 10 6 359 355 352 350 348 347 348 349 350 350 351 350 350 350 350 348 346 344 342 341 340 340 339 339 340 340 341 341 341 341 342 342 342 341 341 340 338 337 337 334 333 332 329 327 326 324 321 320 318 316 314 313 312 311 310 312 314 314 315 315 308 305 307 308 307 308 310 311 310 309 309 309 309 310 310
106 101 87 68 59 52 48 45 31 13 7 4 360 357 355 352 349 348 349 350 352 353 353 354 354 354 354 353 350 348 346 343 342 341 341 340 340 341 341 341 341 341 342 342 341 342 340 340 339 336 336 335 332 332 330 328 326 323 321 320 319 317 316 315 313 313 312 311 313 315 314 319 320 308 304 307 308 308 309 308 310 310 309 310 310 311 311 311
104 93 80 66 58 50 45 42 29 15 6 359 357 358 354 349 350 351 352 354 355 357 357 357 358 358 358 356 354 352 349 347 346 344 343 342 342 342 342 342 342 341 341 340 340 340 338 338 337 334 334 332 331 330 328 327 325 321 320 318 317 317 315 314 313 313 312 310 312 314 314 323 326 307 304 309 309 310 310 308 311 311 310 311 311 311 312 312
91 81 74 64 59 55 37 26 22 11 358 355 358 358 352 349 352 353 355 358 358 360 1 1 2 2 1 0 358 357 355 352 351 348 347 346 344 344 343 343 342 341 340 340 339 338 336 336 335 333 331 330 329 328 325 325 322 319 319 315 314 314 313 312 312 311 310 309 311 311 312 326 333 308 308 310 309 311 310 309 311 311 310 311 311 312 312 312
79 74 66 57 58 53 36 23 13 0 354 359 -0 356 352 353 354 357 358 -0 1 3 4 5 6 5 5 4 3 2 360 357 355 352 350 349 347 347 346 345 344 342 341 340 339 338 335 334 333 331 329 328 327 325 323 322 320 319 317 313 312 311 309 309 310 310 308 306 310 309 308 322 336 314 308 306 305 309 309 307 310 311 310 311 311 312 312 312
75 72 62 51 37 39 34 13 357 360 2 4 1 356 355 356 358 0 1 2 4 6 7 7 8 8 8 7 5 3 1 358 356 354 352 351 349 349 348 347 346 344 343 341 339 338 335 333 331 329 328 326 325 322 320 319 318 317 315 313 310 307 306 306 306 308 306 304 309 307 303 316 335 317 305 302 304 307 306 306 309 310 310 311 311 312 312 312
68 67 61 51 41 43 37 8 5 9 8 6 3 359 0 1 2 4 5 6 7 8 9 9 9 9 8 7 5 2 360 358 356 354 352 351 349 349 348 347 346 345 343 342 340 339 337 334 331 330 328 326 324 322 319 316 316 315 315 313 309 306 306 303 303 304 302 303 309 303 301 317 330 313 304 304 305 306 305 306 309 310 311 311 311 311 312 312
66 66 64 55 46 42 31 19 16 13 11 10 7 4 5 5 6 8 9 10 10 10 11 10 10 9 7 5 4 0 358 357 355 353 352 350 349 347 347 346 344 343 342 342 341 339 338 336 332 330 330 327 325 321 317 315 314 314 314 312 308 306 305 303 302 301 300 304 306 299 302 317 319 307 304 305 305 305 305 307 309 310 310 311 311 311 312 312
77 70 65 56 44 29 26 24 19 15 16 15 11 10 11 11 11 12 13 13 12 11 11 10 9 8 6 5 3 1 359 357 356 354 353 351 349 346 346 344 343 342 341 340 340 338 338 336 332 331 332 329 327 323 317 314 314 314 313 311 309 307 305 304 302 300 302 304 300 297 305 312 309 305 307 306 304 304 305 307 309 310 310 311 311 311 312 312
81 71 63 56 40 26 29 28 22 20 21 19 17 16 16 16 17 16 16 16 14 13 11 10 9 8 8 7 5 3 1 360 358 356 354 352 349 347 346 344 343 342 341 340 338 337 337 335 330 330 331 329 327 324 318 316 318 318 315 314 312 309 306 304 301 302 304 301 299 304 308 305 306 310 310 307 305 305 307 309 310 310 311 311 311 311 312 313
83 69 59 52 38 30 32 31 26 25 24 23 22 21 20 20 20 20 19 19 17 15 13 11 10 9 9 9 8 6 5 3 1 359 357 354 351 348 347 346 345 343 342 341 338 336 336 334 328 328 330 328 325 321 318 318 320 320 318 318 315 311 307 304 303 304 303 299 303 311 307 302 308 315 312 307 306 306 309 310 311 311 312 311 311 312 313 314
82 70 54 44 37 31 31 31 30 28 28 28 26 25 24 23 23 23 22 21 19 17 15 13 11 10 10 9 9 8 7 6 4 2 359 356 354 351 349 348 348 345 343 342 340 336 336 335 329 327 330 328 322 318 317 316 317 319 320 318 314 310 307 305 305 306 303 301 307 312 306 304 311 315 310 308 309 309 311 312 312 313 313 312 312 313 314 314
81 68 48 38 37 34 33 34 35 33 32 32 31 29 27 25 24 23 22 21 20 18 17 14 12 11 10 9 9 8 7 7 5 4 2 358 356 354 352 351 350 348 345 345 343 339 337 337 331 328 332 330 320 315 315 315 316 320 321 317 312 309 306 307 309 309 307 306 309 309 305 307 313 312 309 310 311 311 312 313 314 314 313 313 313 313 314 314
78 67 48 38 40 40 38 38 39 37 34 34 33 30 28 26 24 22 21 20 19 17 16 15 13 12 10 8 8 7 6 6 5 5 3 0 357 355 354 352 351 350 348 348 348 343 339 339 335 330 335 334 321 316 315 314 317 321 322 317 311 309 310 312 314 314 311 310 310 307 306 309 313 311 309 311 312 312 313 315 315 315 314 313 312 314 315 314
67 66 54 44 44 44 42 40 39 36 33 32 31 29 27 25 23 21 19 17 16 15 14 13 12 11 9 7 6 6 5 5 4 4 3 2 359 356 354 353 351 351 350 349 351 347 342 342 339 334 338 339 327 320 319 318 321 325 323 317 313 314 318 318 319 320 316 312 311 309 308 311 313 311 310 311 312 312 314 315 316 315 313 312 313 315 315 314
67 68 63 55 49 46 44 39 34 31 29 27 26 25 23 22 20 18 15 14 13 11 10 9 8 8 7 6 5 4 4 3 2 2 2 2 360 356 353 352 350 349 349 349 350 349 345 344 343 338 339 342 333 326 326 327 329 330 323 317 317 321 322 321 323 325 321 316 313 310 311 315 315 312 311 311 312 313 314 315 317 315 313 313 315 316 315 315
Height
5793 5792 5792 5792 5792 5792 5792 5791 5791 5791 5791 5790 5790 5790 5790 5790 5789 5789 5789 5789 5788 5788 5789 5790 5790 5790 5790 5790 5790 5791 5790 5790 5791 5791 5791 5791 5791 5791 5791 5791 5791 5791 5791 5791 5790 5790 5790 5790 5789 5789 5788 5788 5788 5789 5789 5788 5788 5788 5787 5786 5784 5783 5784 5784 5783 5783 5782 5781 5781 5780 5780 5779 5778 5778 5777 5777 5776 5776 5775 5773 5773 5772 5771 5771 5770 5770 5769 5768
5793 5793 5793 5793 5793 5793 5792 5792 5792 5792 5792 5791 5791 5790 5790 5789 5789 5789 5789 5789 5789 5789 5790 5790 5790 5790 5790 5790 5790 5790 5790 5790 5790 5791 5791 5791 5791 5791 5790 5790 5790 5790 5789 5790 5789 5789 5789 5789 5788 5788 5787 5787 5787 5787 5787 5787 5787 5786 5785 5784 5783 5783 5782 5782 5781 5780 5779 5778 5777 5776 5776 5775 5775 5774 5774 5773 5772 5772 5771 5770 5769 5768 5767 5766 5766 5765 5764 5763
5794 5793 5793 5793 5793 5793 5792 5792 5792 5792 5792 5791 5791 5791 5790 5790 5789 5789 5789 5789 5790 5790 5790 5790 5790 5790 5789 5789 5789 5789 5789 5789 5790 5790 5790 5790 5790 5790 5789 5789 5789 5788 5788 5788 5788 5788 5788 5787 5787 5786 5786 5785 5785 5784 5784 5784 5784 5784 5783 5782 5782 5781 5780 5779 5778 5778 5777 5775 5774 5773 5772 5772 5771 5771 5770 5769 5769 5768 5767 5767 5766 5764 5763 5762 5761 5760 5759 5758
5794 5794 5793 5793 5793 5792 5792 5792 5792 5792 5792 5791 5791 5791 5790 5790 5790 5790 5790 5790 5790 5790 5790 5790 5790 5789 5789 5789 5789 5789 5789 5789 5789 5789 5789 5789 5788 5788 5788 5788 5788 5787 5787 5787 5787 5786 5786 5785 5785 5784 5784 5783 5782 5782 5782 5782 5782 5781 5780 5780 5779 5778 5777 5776 5775 5774 5773 5772 5771 5770 5769 5768 5767 5767 5766 5766 5765 5764 5763 5762 5762 5760 5759 5758 5757 5756 5755 5754
5795 5795 5794 5794 5793 5793 5793 5792 5792 5792 5792 5791 5791 5791 5791 5790 5790 5790 5790 5790 5790 5789 5789 5789 5789 5788 5788 5788 5788 5788 5788 5788 5788 5788 5787 5787 5787 5786 5786 5786 5786 5785 5785 5785 5784 5784 5784 5783 5782 5782 5781 5781 5780 5780 5779 5779 5779 5777 5777 5777 5776 5775 5774 5773 5772 5771 5770 5769 5768 5766 5765 5764 5763 5763 5762 5762 5761 5760 5759 5758 5757 5756 5755 5753 5752 5751 5750 5749
5795 5795 5794 5794 5794 5793 5793 5793 5792 5792 5792 5792 5791 5791 5791 5790 5790 5790 5790 5790 5789 5789 5788 5788 5788 5787 5787 5787 5787 5787 5787 5787 5787 5786 5786 5786 5785 5785 5785 5784 5784 5784 5783 5782 5782 5782 5781 5780 5780 5779 5778 5778 5777 5777 5777 5776 5775 5774 5773 5773 5772 5771 5771 5770 5769 5768 5767 5766 5764 5763 5762 5761 5760 5759 5758 5757 5757 5756 5755 5754 5752 5751 5750 5749 5748 5747 5746 5745
5795 5795 5794 5794 5794 5793 5793 5793 5793 5792 5792 5792 5792 5791 5791 5790 5790 5789 5789 5789 5789 5788 5788 5787 5787 5787 5787 5786 5786 5786 5786 5786 5786 5785 5785 5784 5784 5784 5783 5783 5782 5782 5781 5781 5780 5780 5779 5778 5777 5776 5776 5775 5775 5774 5774 5773 5772 5771 5770 5769 5768 5768 5767 5766 5766 5765 5764 5762 5761 5760 5759 5758 5756 5755 5754 5753 5753 5752 5751 5749 5748 5747 5746 5745 5743 5742 5741 5740
5795 5795 5794 5794 5793 5793 5793 5793 5792 5792 5792 5792 5792 5791 5791 5790 5790 5789 5789 5788 5788 5788 5787 5787 5786 5786 5786 5786 5786 5785 5785 5785 5784 5784 5783 5783 5782 5782 5782 5781 5781 5780 5780 5779 5779 5778 5777 5776 5775 5774 5773 5772 5772 5772 5771 5770 5769 5768 5767 5766 5765 5765 5764 5763 5762 5761 5760 5759 5758 5757 5756 5754 5753 5752 5750 5749 5748 5747 5746 5745 5744 5743 5742 5741 5739 5738 5737 5735
5795 5795 5794 5794 5793 5793 5793 5792 5792 5792 5792 5791 5791 5791 5790 5790 5790 5789 5789 5788 5788 5787 5787 5786 5786 5785 5785 5785 5785 5784 5784 5784 5783 5783 5782 5781 5781 5780 5780 5779 5779 5778 5778 5777 5776 5775 5774 5774 5772 5771 5770 5770 5769 5769 5768 5767 5766 5765 5764 5763 5762 5761 5760 5760 5759 5758 5757 5756 5755 5754 5752 5750 5749 5748 5747 5746 5744 5743 5742 5741 5740 5739 5737 5736 5735 5734 5732 5731
5795 5794 5794 5794 5793 5793 5792 5792 5792 5792 5791 5791 5791 5791 5790 5790 5790 5789 5788 5788 5788 5787 5787 5786 5785 5785 5784 5784 5784 5783 5783 5782 5782 5781 5780 5780 5779 5779 5778 5777 5777 5776 5775 5775 5774 5773 5772 5771 5770 5768 5767 5767 5766 5766 5766 5764 5764 5763 5762 5761 5759 5758 5757 5757 5755 5754 5754 5753 5752 5750 5748 5746 5745 5744 5743 5742 5741 5739 5738 5736 5735 5734 5732 5731 5730 5729 5728 5726
5795 5794 5794 5794 5793 5792 5792 5792 5791 5791 5791 5790 5790 5790 5790 5789 5789 5788 5788 5787 5787 5786 5786 5785 5785 5784 5784 5783 5783 5782 5782 5781 5780 5780 5779 5778 5778 5777 5776 5776 5775 5774 5773 5772 5772 5771 5769 5768 5767 5765 5764 5764 5764 5763 5762 5762 5761 5760 5759 5758 5756 5755 5754 5753 5752 5751 5750 5749 5747 5745 5744 5742 5741 5741 5740 5739 5737 5736 5734 5732 5731 5729 5728 5726 5725 5724 5723 5721
5795 5794 5794 5793 5793 5792 5792 5791 5791 5790 5790 5790 5789 5789 5789 5788 5788 5787 5787 5786 5786 5785 5785 5785 5784 5783 5783 5782 5782 5781 5780 5779 5779 5778 5778 5777 5776 5776 5775 5774 5774 5773 5772 5771 5770 5769 5767 5766 5764 5763 5762 5762 5762 5761 5760 5759 5758 5757 5756 5755 5753 5753 5751 5750 5749 5747 5746 5745 5743 5741 5739 5738 5737 5736 5735 5734 5733 5731 5730 5728 5726 5725 5723 5722 5720 5719 5717 5716
5794 5794 5793 5792 5792 5792 5791 5791 5790 5790 5789 5789 5789 5789 5788 5788 5787 5787 5786 5785 5785 5784 5784 5783 5782 5782 5781 5781 5780 5779 5779 5778 5778 5777 5777 5776 5775 5775 5774 5773 5772 5771 5771 5769 5768 5767 5766 5764 5763 5761 5760 5760 5760 5759 5758 5757 5756 5754 5753 5752 5751 5750 5749 5747 5746 5744 5742 5741 5739 5737 5735 5734 5733 5732 5731 5729 5728 5726 5725 5723 5722 5720 5719 5717 5715 5714 5712 5710
5794 5793 5792 5792 5791 5791 5791 5790 5790 5789 5789 5789 5788 5788 5788 5787 5786 5786 5785 5784 5784 5783 5782 5782 5781 5780 5780 5779 5779 5778 5778 5777 5777 5777 5776 5775 5774 5774 5773 5772 5771 5770 5769 5768 5767 5765 5764 5763 5761 5759 5758 5758 5758 5757 5755 5754 5753 5752 5750 5749 5748 5747 5745 5744 5742 5741 5739 5737 5736 5734 5731 5730 5729 5728 5726 5725 5723 5721 5720 5718 5717 5715 5714 5712 5710 5709 5706 5704
5793 5792 5792 5791 5791 5791 5790 5790 5790 5789 5789 5788 5788 5787 5787 5786 5785 5785 5784 5783 5782 5782 5781 5780 5780 5779 5779 5778 5778 5777 5777 5776 5776 5776 5775 5774 5773 5772 5771 5770 5770 5769 5767 5766 5765 5764 5762 5761 5759 5757 5755 5755 5755 5754 5753 5751 5750 5749 5747 5746 5745 5743 5742 5740 5739 5737 5736 5734 5732 5731 5728 5726 5726 5724 5722 5720 5718 5717 5715 5714 5712 5710 5709 5707 5705 5703 5701 5699
5792 5792 5791 5791 5790 5790 5790 5789 5789 5789 5788 5788 5787 5787 5786 5785 5784 5784 5783 5782 5781 5781 5780 5780 5779 5778 5778 5778 5777 5776 5776 5776 5775 5774 5773 5773 5772 5771 5770 5769 5768 5767 5765 5764 5763 5761 5760 5758 5756 5755 5753 5752 5751 5751 5750 5748 5747 5746 5744 5743 5741 5740 5738 5737 5735 5734 5732 5730 5729 5727 5725 5723 5722 5720 5718 5717 5715 5713 5711 5709 5708 5706 5704 5702 5701 5699 5697 5695
5791 5791 5790 5790 5790 5789 5789 5789 5788 5788 5788 5787 5786 5786 5785 5784 5783 5783 5782 5781 5781 5780 5780 5779 5778 5778 5777 5777 5776 5776 5775 5774 5773 5772 5772 5771 5770 5769 5768 5767 5766 5765 5764 5762 5761 5760 5758 5756 5755 5753 5751 5749 5748 5747 5746 5745 5744 5743 5741 5739 5738 5736 5735 5733 5732 5730 5729 5727 5725 5723 5721 5719 5717 5716 5714 5713 5711 5709 5707 5705 5703 5702 5700 5698 5696 5694 5692 5690
5790 5790 5790 5790 5789 5789 5788 5788 5788 5787 5787 5786 5785 5785 5784 5783 5783 5782 5781 5781 5780 5780 5779 5779 5778 5777 5777 5776 5775 5775 5774 5773 5772 5771 5770 5769 5768 5767 5766 5766 5765 5763 5762 5761 5759 5758 5756 5755 5753 5751 5749 5747 5745 5744 5743 5742 5741 5740 5738 5736 5734 5733 5732 5730 5728 5727 5725 5723 5721 5719 5717 5715 5713 5711 5710 5708 5706 5704 5703 5701 5699 5697 5696 5694 5692 5690 5688 5686
5790 5790 5789 5789 5789 5788 5788 5788 5787 5787 5786 5785 5784 5784 5783 5783 5782 5781 5781 5780 5779 5779 5778 5778 5777 5777 5776 5775 5774 5774 5773 5772 5771 5770 5769 5768 5767 5766 5765 5764 5763 5761 5760 5758 5757 5756 5754 5752 5751 5749 5747 5745 5743 5741 5740 5738 5737 5736 5734 5733 5731 5729 5728 5726 5725 5723 5721 5718 5716 5714 5713 5711 5709 5707 5705 5703 5702 5700 5698 5696 5695 5693 5691 5689 5687 5685 5683 5682
5789 5789 5789 5789 5789 5788 5788 5787 5786 5786 5785 5784 5784 5783 5783 5782 5781 5781 5780 5780 5779 5778 5777 5777 5776 5775 5775 5774 5773 5773 5772 5771 5770 5769 5768 5767 5766 5764 5763 5762 5760 5759 5757 5756 5754 5753 5751 5749 5748 5746 5744 5742 5740 5739 5737 5735 5734 5732 5731 5729 5727 5726 5724 5722 5721 5718 5716 5714 5712 5710 5708 5707 5705 5703 5701 5699 5697 5695 5694 5692 5691 5689 5687 5685 5684 5682 5680 5678
5789 5789 5789 5788 5788 5788 5787 5786 5785 5785 5784 5784 5784 5783 5782 5782 5781 5780 5780 5779 5778 5778 5777 5776 5775 5775 5774 5773 5772 5772 5771 5770 5769 5767 5766 5765 5764 5762 5761 5759 5758 5756 5755 5753 5751 5749 5748 5746 5744 5743 5741 5739 5737 5736 5734 5732 5731 5729 5727 5726 5724 5722 5720 5718 5716 5714 5712 5710 5708 5706 5704 5703 5701 5699 5697 5695 5693 5691 5690 5688 5687 5685 5683 5682 5680 5678 5676 5674
5789 5788 5788 5788 5787 5787 5786 5785 5785 5784 5784 5784 5783 5783 5782 5781 5781 5780 5779 5779 5778 5777 5776 5775 5775 5774 5774 5773 5772 5771 5770 5769 5767 5766 5765 5764 5762 5760 5758 5757 5755 5753 5752 5750 5748 5746 5745 5743 5742 5740 5738 5736 5735 5733 5731 5729 5728 5726 5724 5722 5720 5718 5716 5714 5712 5710 5708 5706 5704 5702 5700 5699 5697 5695 5693 5690 5689 5688 5686 5684 5683 5681 5680 5678 5676 5674 5672 5670
5788 5788 5787 5787 5787 5786 5785 5785 5784 5784 5784 5783 5783 5782 5782 5781 5780 5779 5779 5778 5777 5776 5776 5775 5775 5774 5773 5772 5771 5770 5769 5767 5766 5764 5763 5761 5759 5758 5756 5754 5753 5751 5749 5748 5746 5744 5742 5741 5739 5737 5736 5734 5732 5730 5728 5726 5725 5723 5721 5719 5717 5715 5713 5710 5708 5706 5704 5703 5700 5699 5697 5695 5693 5691 5689 5686 5685 5684 5682 5681 5679 5678 5676 5674 5672 5670 5669 5667
5788 5788 5787 5786 5786 5785 5785 5785 5784 5784 5783 5783 5782 5782 5781 5780 5779 5779 5778 5777 5777 5776 5776 5775 5774 5773 5772 5771 5769 5768 5767 5765 5764 5762 5760 5758 5757 5755 5754 5752 5751 5749 5747 5746 5744 5742 5740 5738 5736 5735 5733 5731 5728 5726 5725 5723 5721 5719 5717 5715 5713 5711 5708 5706 5704 5702 5701 5699 5697 5695 5694 5692 5690 5687 5685 5683 5682 5680 5679 5678 5676 5674 5672 5670 5669 5667 5665 5663
5788 5787 5787 5786 5786 5785 5785 5784 5784 5784 5783 5783 5782 5781 5780 5779 5779 5778 5778 5777 5777 5776 5775 5774 5773 5772 5771 5769 5768 5766 5765 5763 5761 5760 5758 5757 5755 5753 5752 5750 5749 5747 5745 5743 5742 5740 5738 5736 5734 5731 5729 5727 5725 5723 5721 5718 5716 5714 5712 5710 5708 5706 5704 5702 5700 5699 5697 5695 5694 5692 5690 5689 5687 5684 5682 5681 5679 5678 5676 5675 5673 5671 5669 5667 5665 5663 5661 5659
5787 5787 5786 5786 5785 5785 5785 5784 5784 5784 5783 5782 5781 5781 5780 5779 5779 5778 5778 5777 5776 5776 5775 5774 5772 5771 5770 5768 5767 5765 5763 5762 5760 5758 5757 5755 5754 5752 5750 5748 5747 5745 5743 5741 5739 5737 5735 5733 5731 5728 5726 5723 5721 5719 5716 5714 5712 5710 5708 5706 5704 5703 5701 5699 5697 5695 5694 5692 5691 5689 5687 5686 5684 5681 5680 5679 5677 5675 5674 5672 5670 5668 5666 5664 5662 5659 5657 5655
5787 5786 5786 5786 5785 5785 5785 5784 5784 5783 5783 5782 5781 5781 5780 5780 5779 5779 5778 5777 5776 5775 5774 5773 5772 5770 5769 5767 5765 5764 5762 5760 5759 5757 5755 5754 5752 5750 5749 5747 5745 5743 5741 5739 5737 5735 5732 5730 5727 5725 5722 5719 5717 5715 5712 5710 5708 5707 5705 5703 5702 5700 5698 5696 5694 5692 5691 5689 5688 5686 5684 5683 5682 5679 5678 5677 5675 5673 5671 5669 5667 5665 5663 5661 5658 5656 5653 5651
5786 5786 5786 5785 5785 5785 5785 5784 5784 5783 5783 5782 5782 5781 5781 5780 5780 5779 5778 5777 5776 5775 5774 5773 5771 5769 5768 5766 5764 5763 5761 5759 5757 5756 5754 5752 5750 5748 5747 5745 5743 5741 5739 5736 5734 5731 5729 5726 5724 5721 5718 5716 5713 5711 5709 5707 5706 5704 5702 5701 5699 5697 5695 5694 5692 5690 5688 5687 5685 5684 5682 5681 5680 5677 5676 5675 5672 5670 5668 5666 5664 5662 5660 5658 5655 5653 5650 5647
5786 5786 5786 5785 5785 5785 5785 5784 5784 5783 5783 5783 5782 5782 5781 5781 5780 5779 5778 5777 5776 5775 5774 5772 5771 5769 5767 5765 5763 5762 5760 5758 5756 5754 5752 5750 5749 5747 5745 5743 5741 5739 5736 5734 5731 5729 5726 5723 5721 5718 5715 5713 5710 5708 5706 5705 5704 5702 5701 5699 5697 5695 5693 5692 5690 5688 5686 5684 5683 5681 5679 5677 5677 5675 5673 5671 5670 5668 5666 5663 5661 5659 5657 5654 5652 5649 5646 5644
5786 5786 5785 5785 5785 5785 5785 5784 5784 5784 5783 5783 5783 5782 5782 5781 5780 5779 5778 5777 5776 5774 5773 5772 5770 5768 5767 5765 5763 5760 5758 5756 5754 5752 5751 5749 5747 5745 5743 5741 5739 5737 5735 5732 5729 5727 5724 5721 5718 5716 5713 5711 5708 5706 5705 5703 5702 5701 5699 5697 5695 5693 5691 5689 5687 5685 5684 5682 5680 5678 5676 5674 5673 5672 5670 5668 5666 5665 5663 5660 5658 5656 5654 5651 5648 5645 5642 5639
5786 5785 5785 5785 5785 5785 5785 5785 5785 5784 5784 5783 5783 5782 5782 5781 5780 5779 5778 5777 5775 5774 5772 5771 5769 5767 5765 5763 5761 5759 5757 5755 5753 5752 5750 5748 5746 5744 5742 5740 5738 5735 5733 5730 5727 5724 5722 5719 5717 5714 5712 5710 5707 5706 5704 5702 5700 5699 5697 5695 5693 5691 5689 5687 5685 5683 5681 5680 5677 5676 5673 5671 5670 5669 5667 5665 5664 5662 5660 5658 5655 5653 5650 5648 5645 5642 5638 5635
5786 5785 5785 5785 5785 5785 5785 5785 5785 5784 5784 5784 5783 5783 5782 5781 5780 5779 5778 5776 5775 5773 5771 5770 5768 5766 5764 5761 5759 5757 5755 5754 5752 5750 5749 5747 5745 5743 5741 5738 5735 5733 5730 5728 5725 5722 5720 5718 5715 5713 5711 5709 5707 5705 5703 5701 5699 5697 5695 5693 5692 5689 5687 5685 5683 5681 5680 5678 5676 5674 5671 5669 5667 5666 5664 5662 5661 5659 5657 5655 5652 5650 5647 5644 5641 5638 5635 5631
5786 5786 5786 5786 5786 5786 5786 5786 5785 5785 5784 5784 5783 5783 5782 5781 5780 5778 5777 5776 5774 5772 5771 5769 5766 5764 5762 5760 5758 5756 5754 5752 5751 5749 5747 5745 5743 5741 5739 5736 5734 5731 5729 5726 5724 5721 5719 5717 5714 5712 5710 5708 5706 5704 5702 5700 5698 5696 5694 5692 5690 5688 5686 5685 5683 5681 5680 5678 5676 5673 5670 5667 5666 5664 5662 5659 5657 5655 5653 5651 5648 5646 5643 5640 5637 5634 5631 5627
5786 5786 5786 5787 5787 5787 5786 5786 5786 5785 5785 5784 5783 5783 5782 5780 5779 5778 5776 5775 5773 5772 5770 5767 5765 5763 5761 5759 5757 5755 5753 5751 5750 5748 5746 5744 5742 5740 5737 5735 5732 5730 5728 5725 5723 5720 5718 5716 5714 5711 5709 5707 5705 5703 5701 5699 5697 5695 5694 5692 5690 5688 5686 5684 5682 5680 5678 5677 5675 5672 5668 5665 5663 5661 5659 5657 5654 5652 5650 5648 5645 5642 5639 5636 5633 5630 5626 5623
5787 5787 5787 5787 5787 5787 5787 5786 5786 5785 5785 5784 5783 5782 5781 5780 5779 5777 5776 5774 5773 5771 5769 5766 5764 5762 5759 5757 5755 5754 5752 5750 5749 5747 5745 5743 5741 5738 5736 5734 5731 5729 5726 5724 5722 5719 5717 5715 5713 5711 5708 5706 5704 5702 5700 5698 5696 5695 5693 5691 5689 5687 5685 5683 5680 5678 5675 5674 5673 5670 5666 5664 5661 5658 5655 5653 5651 5648 5646 5644 5641 5638 5635 5632 5629 5625 5621 5617
5788 5788 5788 5788 5788 5787 5787 5787 5786 5786 5785 5784 5783 5782 5781 5780 5778 5777 5775 5774 5772 5770 5768 5765 5763 5761 5759 5756 5754 5753 5751 5749 5747 5745 5743 5741 5739 5737 5734 5732 5730 5727 5725 5723 5721 5718 5716 5714 5712 5710 5707 5705 5703 5701 5699 5697 5695 5694 5692 5690 5688 5686 5684 5681 5678 5676 5673 5670 5669 5667 5665 5662 5658 5654 5651 5649 5647 5645 5642 5640 5637 5633 5630 5626 5623 5619 5615 5612
5788 5788 5789 5788 5788 5788 5787 5787 5786 5786 5785 5784 5783 5782 5781 5779 5778 5776 5775 5773 5771 5769 5767 5764 5762 5760 5758 5756 5754 5752 5750 5748 5746 5744 5742 5740 5737 5735 5733 5730 5728 5726 5724 5721 5719 5717 5715 5712 5710 5708 5706 5704 5702 5700 5698 5696 5694 5692 5690 5688 5686 5684 5682 5679 5675 5673 5670 5666 5664 5664 5662 5660 5656 5650 5646 5645 5643 5640 5637 5635 5633 5629 5625 5621 5618 5614 5609 5605
5789 5789 5789 5789 5788 5788 5787 5787 5786 5786 5785 5784 5783 5781 5780 5779 5777 5776 5774 5772 5770 5768 5766 5763 5761 5759 5757 5755 5753 5751 5749 5747 5745 5743 5741 5738 5736 5734 5731 5729 5727 5725 5722 5720 5718 5716 5714 5711 5709 5707 5705 5703 5701 5699 5697 5695 5692 5690 5688 5686 5684 5681 5679 5677 5673 5669 5666 5662 5659 5658 5657 5657 5654 5647 5642 5641 5639 5636 5632 5629 5627 5624 5619 5615 5612 5608 5603 5599
5789 5789 5789 5789 5788 5788 5788 5787 5787 5786 5785 5784 5782 5781 5780 5778 5777 5775 5774 5772 5769 5767 5765 5762 5760 5758 5756 5754 5752 5750 5748 5746 5744 5742 5739 5737 5735 5732 5730 5728 5725 5723 5721 5719 5716 5714 5712 5710 5708 5706 5704 5701 5699 5697 5695 5693 5691 5688 5685 5683 5681 5678 5675 5673 5670 5666 5662 5657 5653 5651 5650 5653 5652 5643 5638 5636 5633 5631 5627 5623 5621 5618 5613 5609 5605 5601 5597 5592
5790 5789 5789 5789 5788 5788 5788 5787 5786 5786 5785 5783 5782 5780 5779 5778 5777 5775 5773 5771 5769 5766 5764 5762 5760 5758 5755 5753 5751 5749 5747 5745 5743 5740 5738 5736 5733 5731 5729 5726 5724 5722 5720 5717 5715 5713 5710 5708 5706 5704 5702 5700 5698 5696 5693 5691 5688 5685 5683 5681 5678 5675 5672 5669 5667 5664 5659 5654 5650 5645 5643 5648 5650 5642 5635 5631 5626 5624 5620 5616 5614 5611 5607 5603 5598 5594 5590 5585
5790 5789 5789 5789 5789 5788 5788 5787 5786 5786 5784 5783 5781 5780 5779 5778 5776 5774 5772 5770 5768 5766 5764 5761 5759 5757 5755 5753 5751 5748 5746 5744 5742 5739 5737 5735 5732 5730 5727 5725 5722 5720 5718 5716 5713 5711 5709 5706 5704 5702 5700 5698 5696 5694 5691 5689 5686 5683 5681 5678 5675 5673 5669 5665 5662 5660 5656 5652 5648 5641 5635 5641 5647 5641 5633 5627 5621 5618 5614 5610 5608 5605 5601 5597 5592 5587 5583 5578
5790 5790 5790 5789 5789 5788 5787 5787 5787 5786 5784 5782 5781 5780 5779 5777 5776 5774 5772 5770 5767 5765 5763 5761 5759 5757 5755 5752 5750 5748 5746 5743 5741 5738 5736 5733 5731 5728 5726 5723 5721 5718 5716 5714 5712 5709 5707 5704 5702 5700 5698 5695 5694 5691 5689 5686 5684 5681 5678 5676 5673 5669 5666 5661 5657 5654 5652 5648 5647 5639 5628 5632 5642 5638 5630 5624 5618 5614 5609 5604 5602 5599 5595 5590 5585 5580 5576 5572
5791 5790 5790 5790 5789 5788 5788 5788 5787 5785 5784 5783 5781 5780 5779 5777 5775 5773 5771 5769 5767 5765 5763 5761 5759 5757 5754 5752 5750 5748 5745 5742 5740 5737 5735 5732 5729 5727 5724 5722 5719 5717 5715 5712 5710 5707 5705 5702 5700 5698 5696 5693 5690 5688 5686 5683 5681 5678 5675 5673 5669 5666 5662 5658 5653 5650 5646 5643 5645 5636 5621 5625 5636 5632 5624 5619 5613 5608 5604 5599 5596 5592 5588 5584 5578 5574 5570 5565
5791 5790 5790 5790 5789 5789 5788 5787 5786 5785 5784 5782 5781 5780 5778 5776 5775 5773 5771 5769 5767 5765 5763 5761 5759 5756 5754 5752 5749 5747 5744 5742 5739 5736 5734 5731 5728 5725 5723 5720 5718 5715 5713 5711 5708 5706 5703 5700 5697 5695 5694 5691 5689 5686 5682 5680 5677 5675 5672 5669 5665 5662 5659 5654 5650 5646 5640 5639 5642 5631 5615 5617 5629 5626 5618 5614 5608 5602 5598 5594 5590 5586 5582 5577 5572 5567 5563 5558
5791 5791 5790 5790 5790 5789 5788 5787 5786 5785 5783 5782 5781 5780 5778 5776 5775 5773 5771 5769 5767 5765 5763 5761 5759 5756 5754 5752 5749 5746 5743 5741 5738 5735 5732 5730 5727 5724 5721 5719 5716 5714 5711 5709 5706 5704 5701 5698 5695 5692 5690 5688 5685 5683 5679 5677 5675 5672 5670 5666 5662 5659 5655 5650 5646 5641 5636 5633 5631 5625 5614 5612 5618 5619 5615 5610 5602 5596 5593 5589 5584 5580 5575 5570 5565 5561 5557 5552
5792 5791 5791 5790 5790 5789 5788 5787 5786 5785 5783 5782 5781 5779 5778 5776 5774 5772 5771 5769 5767 5765 5763 5761 5758 5756 5754 5751 5748 5746 5743 5740 5737 5734 5731 5728 5725 5723 5720 5717 5714 5712 5709 5707 5704 5702 5700 5697 5693 5690 5687 5684 5681 5678 5674 5672 5671 5668 5666 5662 5658 5654 5650 5645 5640 5636 5634 5627 5618 5619 5615 5606 5607 5613 5610 5603 5596 5590 5587 5584 5579 5574 5569 5564 5559 5554 5550 5545
5792 5791 5791 5791 5790 5789 5788 5787 5786 5785 5783 5782 5781 5779 5778 5776 5774 5772 5770 5768 5766 5765 5762 5760 5758 5756 5753 5750 5748 5745 5742 5739 5736 5733 5730 5727 5724 5721 5718 5715 5713 5710 5707 5705 5702 5699 5698 5695 5692 5689 5686 5682 5679 5675 5671 5668 5667 5665 5662 5658 5654 5649 5644 5640 5636 5632 5630 5620 5610 5615 5614 5601 5600 5607 5602 5595 5590 5585 5581 5578 5573 5568 5563 5557 5552 5548 5543 5539
5792 5792 5791 5791 5790 5789 5788 5787 5786 5785 5783 5782 5781 5779 5778 5776 5774 5772 5770 5768 5767 5765 5762 5760 5758 5755 5753 5750 5747 5744 5741 5738 5735 5732 5729 5726 5723 5720 5717 5714 5711 5708 5705 5703 5700 5697 5695 5693 5690 5687 5685 5681 5676 5672 5668 5665 5663 5662 5659 5654 5650 5645 5639 5635 5632 5629 5624 5614 5608 5610 5606 5597 5597 5598 5592 5587 5583 5578 5575 5572 5567 5562 5556 5550 5545 5540 5536 5532
5792 5792 5792 5791 5790 5789 5788 5787 5786 5785 5783 5782 5781 5779 5778 5776 5774 5772 5770 5768 5766 5764 5762 5760 5757 5755 5752 5749 5746 5743 5740 5737 5734 5731 5728 5725 5722 5719 5715 5712 5709 5706 5703 5701 5698 5694 5691 5690 5687 5684 5683 5680 5674 5670 5666 5663 5660 5658 5655 5650 5644 5640 5635 5631 5628 5625 5618 5610 5606 5604 5598 5594 5595 5590 5584 5582 5578 5571 5568 5565 5560 5555 5549 5543 5538 5534 5529 5525
5793 5792 5792 5791 5790 5789 5788 5787 5786 5785 5783 5782 5781 5779 5777 5776 5774 5772 5770 5768 5766 5764 5762 5759 5757 5754 5751 5748 5746 5743 5740 5736 5733 5730 5727 5724 5720 5717 5714 5711 5708 5705 5702 5699 5696 5692 5688 5686 5683 5680 5679 5678 5673 5668 5664 5660 5657 5655 5652 5647 5640 5635 5631 5627 5624 5621 5614 5606 5602 5598 5591 5591 5591 5585 5578 5576 5572 5566 5562 5558 5554 5549 5542 5537 5532 5527 5523 5517
5793 5792 5792 5791 5790 5789 5788 5787 5786 5785 5784 5782 5781 5779 5777 5776 5774 5772 5770 5768 5766 5764 5761 5759 5756 5753 5751 5748 5745 5742 5739 5735 5732 5729 5726 5723 5719 5716 5712 5709 5706 5703 5700 5697 5694 5690 5686 5682 5679 5675 5674 5673 5669 5665 5662 5658 5654 5651 5647 5641 5636 5631 5627 5623 5620 5617 5610 5602 5597 5593 5587 5586 5585 5580 5574 5569 5565 5560 5556 5552 5548 5543 5536 5530 5526 5521 5516 5510
5793 5792 5792 5791 5790 5789 5788 5787 5786 5785 5783 5782 5780 5779 5777 5775 5773 5771 5770 5767 5765 5763 5760 5758 5755 5752 5750 5747 5744 5741 5738 5735 5731 5728 5725 5721 5718 5714 5711 5707 5704 5701 5698 5694 5691 5688 5683 5679 5676 5672 5669 5668 5664 5659 5656 5653 5650 5647 5642 5636 5631 5627 5622 5618 5616 5614 5607 5599 5592 5587 5584 5581 5578 5573 5568 5564 5559 5554 5550 5547 5542 5536 5529 5524 5519 5514 5509 5503